Wind_Speed
16 17 17 18 19 19 20 20 21 21 21 21 19 17 17 19 18 18 17 18 19 18 17 17 20 23 24 25 25 26 32 40 36 32 29 28 21 15 26 21 15 18 24 22 20
17 17 18 18 19 19 20 21 22 22 23 22 21 18 18 20 20 20 20 20 20 17 16 15 19 23 26 27 27 29 39 43 37 30 29 30 27 24 21 24 18 10 16 24 26
17 18 18 18 19 20 22 23 22 23 23 22 21 20 18 19 21 20 20 20 20 17 17 17 16 22 27 29 31 35 46 42 39 32 31 33 33 27 26 30 20 13 14 27 35
17 17 19 20 21 22 22 23 23 24 24 24 22 22 20 19 13 20 21 22 23 25 26 24 24 23 27 30 31 37 41 40 39 34 34 35 34 32 28 27 25 19 20 25 26
18 18 18 19 21 22 23 24 25 25 25 25 23 22 21 20 18 24 26 28 28 28 26 25 24 26 29 30 33 39 42 40 39 37 38 35 40 35 34 24 28 24 23 24 25
19 19 19 20 22 24 25 26 26 26 25 25 23 22 21 19 26 28 30 28 29 29 29 28 26 26 34 35 34 38 39 42 42 41 39 41 40 37 37 23 31 31 27 27 30
21 21 21 21 22 24 25 24 25 25 24 23 23 22 22 19 21 24 26 28 29 29 29 28 28 30 32 37 37 38 42 44 46 42 42 34 42 47 38 27 31 35 30 31 29
21 21 21 20 21 23 25 25 24 24 24 23 22 22 16 15 22 26 27 23 25 30 32 30 31 36 36 35 39 39 39 47 22 15 36 38 50 47 36 31 30 34 32 31 34
22 22 23 23 23 24 25 25 24 23 24 22 22 20 16 15 29 30 30 34 33 31 31 29 27 32 36 34 34 32 43 42 40 36 23 18 46 49 41 31 29 32 34 32 33
23 25 25 27 24 22 23 23 24 25 20 22 13 17 17 27 32 35 35 32 34 33 25 23 24 24 26 29 33 25 31 44 46 38 15 24 51 42 29 16 25 33 28 33 37
24 27 27 28 27 21 19 23 22 21 24 17 18 20 24 29 33 39 35 36 32 29 27 20 19 19 19 22 34 38 44 49 47 25 16 28 48 42 41 37 21 28 27 28 33
24 25 26 25 26 26 23 19 18 16 15 12 16 19 22 31 36 31 35 38 37 34 30 26 14 6 15 20 26 29 38 51 55 41 41 35 42 41 39 39 39 35 29 30 25
23 23 22 22 23 24 24 22 19 19 10 6 17 26 34 34 25 37 39 38 36 31 31 17 15 14 13 18 22 27 32 44 43 31 27 29 49 40 42 40 36 37 36 29 31
22 20 20 21 19 21 21 21 20 19 3 13 19 25 35 33 11 31 35 34 28 30 29 19 32 21 22 26 22 31 28 34 35 25 30 19 26 39 37 35 33 38 36 37 34
20 21 22 24 23 22 23 21 19 11 4 22 23 28 26 29 28 33 34 33 29 31 27 33 23 20 19 15 21 30 25 31 30 28 27 24 18 39 36 33 32 38 41 38 36
21 21 20 19 22 22 21 17 11 4 3 12 22 28 29 28 24 36 35 32 23 36 30 32 13 14 20 25 23 23 29 25 23 28 17 33 29 22 27 40 33 35 40 41 40
24 23 21 21 19 20 18 15 5 8 16 17 27 26 25 34 29 37 33 36 39 45 55 39 19 29 24 37 16 10 15 3 7 9 13 31 27 39 19 30 29 28 34 37 33
23 23 25 25 22 20 17 11 9 11 16 21 24 17 22 36 28 38 29 26 29 38 28 26 21 31 29 39 21 27 15 7 9 9 9 28 20 28 39 28 23 28 29 34 34
21 21 20 17 18 19 15 10 8 10 15 21 20 14 20 30 28 34 21 19 24 35 30 18 17 30 18 26 29 24 6 17 11 26 11 23 36 17 22 27 34 33 31 25 31
21 22 24 22 25 24 11 12 7 10 16 17 16 12 22 30 29 30 16 15 18 28 30 21 23 17 33 28 27 22 34 0 11 5 9 10 16 9 9 17 22 24 27 28 31
21 20 24 25 26 19 23 12 7 11 16 14 14 14 22 28 31 20 15 22 17 32 33 20 18 29 30 23 26 34 36 22 14 9 4 2 7 11 10 7 11 24 28 25 27
22 21 24 23 16 26 18 13 11 13 13 12 16 15 20 29 23 8 20 18 28 30 36 20 15 27 35 12 10 27 26 28 9 10 11 7 6 13 10 3 5 12 19 25 24
24 22 24 25 21 22 15 11 13 15 19 17 16 16 23 27 20 19 18 29 24 35 34 24 14 21 16 10 15 29 34 30 27 11 4 7 6 19 11 13 13 4 2 11 15
26 22 25 28 26 21 18 16 14 13 15 23 16 22 29 32 16 23 24 29 37 32 18 18 17 15 15 24 30 29 30 30 27 8 17 11 24 25 11 15 11 11 11 5 2
24 21 23 21 21 20 19 18 18 26 24 20 20 25 25 23 28 10 39 40 33 21 17 19 17 15 19 23 16 21 19 21 19 21 16 15 31 26 22 13 14 12 6 7 10
25 24 23 21 21 19 19 20 22 24 25 21 26 26 24 19 25 39 35 31 31 24 24 20 15 17 19 14 18 16 13 15 24 23 27 27 25 28 13 6 15 10 7 7 11
23 22 20 19 18 21 22 22 26 28 19 21 24 28 26 25 28 29 25 25 28 26 18 14 16 18 8 17 17 3 14 18 24 29 29 35 29 21 17 15 18 22 20 12 7
Wind_Direction
353 350 344 338 334 331 329 328 327 326 323 319 315 314 305 296 296 292 286 284 278 273 262 255 250 247 249 248 247 249 247 252 256 263 276 282 276 249 238 247 254 267 252 246 240
348 345 340 334 330 326 324 323 325 325 323 320 317 314 306 298 295 292 289 284 278 270 263 255 251 247 245 248 246 244 250 256 263 268 277 280 271 257 245 238 232 262 255 240 233
351 348 341 335 331 329 328 325 325 323 322 318 313 309 305 299 294 285 279 277 274 267 269 262 256 249 251 250 248 253 254 261 266 269 271 273 271 274 266 251 223 254 249 245 240
349 348 345 338 332 327 322 319 320 320 319 319 316 312 309 300 283 288 285 282 274 271 276 273 263 257 252 251 253 255 259 263 266 264 265 265 275 268 263 248 225 237 241 235 232
349 348 342 336 330 325 322 320 318 316 316 314 315 311 309 299 280 282 286 285 282 281 279 274 268 261 260 256 252 251 258 261 262 260 260 260 260 266 260 239 228 231 230 228 234
346 343 342 337 332 327 323 321 318 316 316 313 313 311 308 287 298 293 290 286 285 286 285 281 274 263 262 261 258 262 262 262 260 259 257 256 257 262 252 238 227 227 235 229 231
344 342 340 336 333 325 322 320 319 318 316 315 315 310 302 305 293 292 297 305 304 300 297 296 290 277 271 268 266 265 267 262 260 260 258 259 257 249 253 247 233 226 230 241 234
338 336 333 335 335 330 325 324 325 323 320 318 315 312 303 292 297 301 303 299 291 292 293 295 287 283 275 277 269 269 269 271 280 279 259 255 256 246 261 247 238 219 229 238 225
335 333 332 333 340 337 329 328 329 327 324 321 318 313 304 325 303 310 321 320 314 306 300 299 285 275 270 265 273 268 265 267 274 270 256 262 261 260 263 250 235 220 224 234 219
337 335 334 333 340 342 336 336 335 331 328 325 319 316 307 329 326 324 327 320 322 319 310 303 290 273 263 252 247 258 260 270 269 270 258 253 261 256 251 225 226 229 223 225 219
338 337 337 336 337 347 345 342 337 323 327 334 335 345 340 335 326 326 332 334 328 330 331 328 299 288 293 275 267 265 264 265 260 253 256 248 259 260 263 244 225 219 223 219 225
341 338 337 339 338 343 351 345 342 330 323 324 339 332 340 335 330 329 335 338 341 340 334 324 344 314 277 274 272 264 262 262 267 266 257 260 260 254 253 250 238 235 227 217 220
341 341 340 342 341 343 345 349 344 337 331 323 337 337 346 344 342 336 344 346 344 344 347 350 346 324 298 282 297 273 266 265 266 274 266 264 264 260 249 250 239 233 232 232 217
345 346 345 345 342 347 348 343 341 341 18 351 351 344 346 355 346 344 349 353 356 353 352 339 331 323 280 281 302 286 267 277 278 266 255 259 270 262 260 257 243 232 226 229 219
348 350 353 348 352 352 347 343 341 348 41 343 351 340 355 3 345 348 351 352 352 3 355 343 337 356 338 330 327 285 278 274 265 258 260 238 246 265 256 257 240 233 223 225 226
352 356 357 354 351 352 345 342 351 16 27 342 336 344 343 3 5 355 0 356 353 356 354 357 5 348 341 331 312 292 274 273 263 255 249 239 228 265 238 242 243 231 227 225 230
353 356 357 357 358 353 349 352 3 55 336 336 343 347 352 356 4 6 1 8 16 2 347 359 9 353 341 342 348 312 290 229 215 227 231 234 226 233 237 238 237 231 224 225 227
353 357 355 357 355 353 357 354 52 360 350 348 343 344 354 357 1 1 3 12 10 6 353 345 329 346 345 339 323 323 266 242 212 210 223 217 218 235 238 229 230 232 234 226 225
355 355 356 348 355 4 7 32 48 10 350 345 351 348 352 351 352 354 4 3 359 3 3 333 302 338 354 347 9 334 328 259 271 267 209 199 225 228 225 230 240 245 240 236 229
357 355 349 2 2 11 350 71 61 5 352 355 354 347 337 344 347 352 351 348 340 350 358 338 305 340 339 336 356 8 360 49 207 265 232 204 183 351 266 217 222 220 226 232 233
1 357 359 4 4 352 43 69 37 355 351 356 339 328 333 339 337 342 337 340 316 338 351 341 318 307 333 331 330 7 7 5 326 293 255 137 89 359 4 315 242 227 228 233 233
359 3 2 3 350 22 37 34 7 344 349 347 333 317 330 336 332 326 325 319 316 326 339 339 309 307 319 356 342 357 4 353 340 321 306 274 106 22 42 30 249 229 220 219 225
2 8 7 10 19 28 35 13 355 346 343 341 338 331 327 331 333 309 320 324 320 328 331 332 318 318 331 347 342 345 354 349 342 311 330 322 21 11 64 63 79 162 225 224 216
2 7 5 6 15 12 14 4 354 346 341 341 344 326 326 329 337 310 315 320 325 328 328 304 296 295 270 294 314 316 345 349 344 316 324 38 21 13 43 56 61 62 86 80 251
4 10 10 6 8 5 4 358 350 346 346 343 333 334 338 331 332 316 322 331 332 344 338 324 291 307 302 314 316 321 332 348 4 17 14 26 32 22 6 31 71 77 57 77 91
9 9 8 3 1 359 356 352 350 343 340 342 332 333 333 324 319 322 332 340 326 336 330 332 299 315 306 322 328 327 357 60 48 34 28 22 22 20 3 56 88 102 79 75 72
12 6 5 358 356 353 354 353 349 339 345 342 332 327 331 326 328 327 330 324 315 321 328 328 322 310 290 327 317 125 35 38 33 39 32 26 9 25 12 33 55 79 98 84 80
Height
3117 3116 3113 3111 3110 3108 3106 3104 3103 3101 3099 3096 3094 3093 3090 3087 3086 3084 3084 3083 3082 3082 3082 3082 3083 3083 3083 3083 3085 3085 3083 3077 3082 3086 3087 3091 3093 3093 3096 3097 3098 3096 3096 3099 3102
3117 3115 3113 3111 3109 3107 3105 3103 3100 3098 3096 3093 3091 3090 3087 3084 3083 3081 3080 3078 3077 3078 3077 3077 3078 3078 3078 3079 3080 3079 3073 3071 3079 3084 3084 3086 3088 3090 3091 3092 3094 3093 3093 3096 3098
3117 3115 3113 3110 3108 3104 3102 3100 3098 3096 3093 3091 3088 3086 3085 3082 3080 3077 3076 3074 3074 3073 3074 3074 3073 3074 3073 3074 3074 3072 3064 3070 3074 3079 3080 3080 3080 3085 3085 3085 3089 3090 3090 3090 3093
3117 3115 3112 3108 3106 3104 3101 3099 3096 3093 3091 3088 3086 3083 3081 3079 3078 3073 3071 3071 3070 3070 3069 3069 3069 3068 3067 3067 3068 3065 3062 3065 3068 3072 3073 3073 3075 3075 3078 3080 3083 3085 3084 3083 3085
3116 3114 3111 3108 3104 3101 3098 3095 3093 3089 3087 3084 3082 3080 3078 3075 3073 3069 3067 3065 3064 3064 3064 3063 3064 3063 3061 3060 3060 3056 3055 3058 3061 3062 3064 3068 3065 3067 3067 3074 3078 3078 3077 3080 3081
3115 3112 3110 3106 3102 3098 3095 3092 3089 3086 3083 3080 3078 3076 3073 3071 3067 3063 3062 3062 3060 3059 3058 3058 3058 3058 3054 3053 3053 3051 3050 3048 3050 3053 3056 3058 3059 3061 3058 3068 3069 3072 3071 3073 3076
3113 3110 3108 3105 3101 3097 3093 3090 3086 3083 3079 3076 3074 3071 3069 3067 3062 3060 3059 3057 3055 3053 3053 3053 3052 3051 3050 3046 3046 3045 3041 3040 3041 3046 3048 3052 3051 3047 3053 3061 3063 3065 3068 3068 3071
3112 3109 3107 3104 3100 3095 3090 3087 3084 3080 3076 3073 3070 3068 3066 3064 3060 3058 3058 3059 3056 3051 3048 3048 3046 3042 3041 3042 3039 3040 3039 3030 3036 3037 3042 3047 3036 3041 3045 3053 3056 3060 3063 3063 3063
3110 3106 3103 3101 3098 3092 3087 3083 3080 3077 3073 3070 3068 3065 3062 3065 3059 3055 3053 3047 3046 3046 3042 3039 3037 3035 3033 3035 3036 3032 3028 3028 3028 3033 3040 3039 3026 3034 3041 3047 3050 3053 3057 3058 3060
3108 3103 3100 3095 3095 3091 3085 3081 3076 3073 3070 3067 3065 3064 3064 3059 3053 3049 3050 3045 3039 3035 3035 3033 3029 3027 3029 3032 3026 3025 3024 3020 3019 3027 3030 3032 3019 3030 3037 3039 3043 3047 3050 3053 3053
3106 3101 3097 3092 3088 3088 3085 3078 3077 3072 3067 3065 3062 3060 3062 3059 3053 3044 3041 3037 3034 3030 3024 3025 3024 3024 3026 3026 3023 3022 3019 3013 3014 3021 3023 3020 3015 3020 3027 3035 3036 3039 3042 3045 3048
3104 3099 3095 3090 3085 3082 3080 3077 3074 3073 3068 3065 3062 3062 3063 3056 3048 3042 3041 3033 3027 3022 3020 3020 3016 3018 3016 3016 3013 3012 3010 3001 3000 3012 3018 3014 3004 3011 3016 3019 3027 3033 3036 3037 3044
3103 3098 3093 3089 3084 3081 3076 3073 3070 3067 3066 3065 3063 3059 3055 3054 3047 3040 3036 3030 3025 3021 3017 3016 3016 3013 3010 3007 3007 3005 3004 2997 3001 3007 3008 3008 2994 3001 3004 3010 3017 3023 3028 3033 3036
3100 3096 3092 3088 3087 3080 3075 3071 3067 3065 3064 3067 3063 3057 3055 3051 3049 3042 3037 3033 3027 3021 3014 3014 3011 3006 3003 3002 3004 2996 2998 2995 2996 3002 2996 3006 2988 2996 2998 3000 3007 3013 3019 3024 3028
3097 3093 3089 3084 3082 3078 3075 3070 3066 3064 3068 3068 3064 3061 3059 3056 3050 3044 3038 3030 3025 3023 3021 3014 3003 3001 3001 3000 2999 2991 2991 2989 2991 2992 2995 2997 2994 2975 2992 2994 2997 3003 3010 3016 3020
3096 3093 3089 3086 3081 3077 3073 3069 3067 3067 3067 3068 3066 3060 3055 3055 3050 3042 3036 3032 3023 3018 3019 3012 3005 3004 2998 2995 2993 2986 2982 2983 2985 2988 2987 2983 2989 2973 2980 2983 2989 2996 3002 3009 3014
3094 3090 3088 3085 3081 3076 3072 3069 3069 3067 3074 3070 3062 3058 3056 3051 3046 3042 3036 3029 3027 3014 3005 3004 3004 3003 2998 2984 2981 2983 2980 2977 2979 2979 2967 2976 2979 2967 2973 2978 2984 2990 2995 3001 3006
3093 3089 3085 3082 3079 3075 3071 3069 3068 3075 3072 3069 3064 3060 3057 3050 3047 3044 3040 3037 3036 3034 3022 3014 2999 3000 2998 2993 2984 2974 2974 2968 2963 2958 2958 2965 2964 2960 2968 2973 2976 2983 2988 2992 2997
3094 3090 3087 3085 3080 3075 3072 3069 3075 3076 3075 3068 3064 3059 3057 3055 3052 3045 3043 3041 3038 3035 3033 3021 3007 3000 3000 2991 2986 2973 2970 2967 2963 2952 2954 2954 2960 2959 2959 2963 2966 2972 2977 2981 2986
3094 3089 3085 3081 3076 3073 3073 3072 3076 3075 3073 3070 3065 3063 3059 3055 3051 3048 3044 3043 3040 3038 3035 3027 3009 2999 2997 2991 2987 2982 2974 2964 2962 2955 2952 2943 2949 2953 2952 2954 2958 2963 2969 2972 2976
3093 3089 3084 3079 3075 3076 3069 3073 3075 3074 3073 3071 3067 3064 3061 3057 3053 3049 3046 3043 3038 3034 3033 3026 3020 2999 2996 2994 2988 2977 2971 2971 2966 2958 2953 2945 2954 2959 2954 2952 2952 2956 2962 2966 2968
3092 3089 3084 3081 3081 3072 3073 3075 3075 3073 3072 3070 3067 3064 3060 3055 3049 3048 3046 3043 3038 3034 3027 3023 3015 3004 2994 2991 2991 2988 2982 2978 2977 2963 2958 2952 2955 2955 2950 2949 2950 2951 2954 2958 2961
3091 3088 3084 3080 3076 3076 3076 3076 3075 3072 3069 3067 3064 3062 3058 3055 3050 3045 3041 3040 3035 3032 3027 3021 3015 3004 2991 2991 2988 2984 2980 2977 2973 2964 2962 2955 2957 2953 2947 2945 2945 2949 2951 2952 2955
3091 3087 3084 3078 3077 3077 3076 3076 3074 3072 3068 3065 3063 3060 3054 3049 3049 3040 3037 3032 3030 3025 3022 3020 3014 3012 3006 2999 2993 2986 2981 2978 2972 2969 2963 2962 2959 2951 2947 2944 2944 2947 2949 2952 2953
3093 3089 3086 3084 3080 3078 3076 3075 3072 3067 3067 3062 3060 3058 3052 3045 3040 3039 3034 3024 3023 3019 3016 3014 3007 3006 3001 2996 2994 2992 2987 2980 2974 2969 2969 2966 2960 2957 2954 2949 2946 2947 2948 2950 2951
3094 3091 3087 3084 3081 3078 3077 3074 3070 3069 3065 3061 3057 3053 3051 3047 3044 3031 3029 3024 3016 3014 3011 3009 3004 3001 2997 2993 2991 2988 2988 2981 2977 2971 2968 2966 2962 2962 2959 2955 2950 2949 2949 2949 2950
3095 3091 3088 3086 3082 3079 3076 3072 3070 3064 3065 3061 3055 3050 3046 3043 3038 3034 3029 3021 3017 3011 3008 3007 3003 2998 2994 2990 2985 2987 2986 2985 2982 2976 2973 2969 2970 2964 2962 2958 2953 2950 2949 2952 2952